Temperature
17 17 17 17 17 17 17 17 17 17 17 17 17 17 17 17 17 17 17 17 17 17 17 17 17 17 17 17 17 17 17 17 17 16 16 16 16 16 16 16 16 16 16
17 17 17 17 17 17 17 17 17 17 17 17 17 17 17 17 17 17 17 17 17 17 17 17 17 17 17 17 17 17 17 16 16 16 16 16 16 16 16 16 16 16 16
17 17 17 17 17 17 17 17 17 17 17 17 17 17 17 17 17 17 17 17 17 17 17 17 17 17 17 17 17 17 17 17 17 16 16 16 16 16 16 16 16 16 16
17 17 17 17 17 17 17 17 17 17 17 17 17 17 17 17 17 17 17 17 17 17 17 17 17 17 17 17 17 17 17 17 17 16 16 16 16 16 16 16 16 16 16
17 17 17 17 17 17 17 17 17 17 17 17 17 17 17 17 17 17 17 17 17 17 17 17 17 17 17 17 17 17 17 16 16 16 16 16 16 16 16 16 16 16 15
17 17 17 17 17 17 17 17 17 17 17 17 18 18 17 17 17 17 17 17 17 17 17 17 17 17 17 17 17 17 17 17 16 16 16 16 16 16 16 16 16 16 15
17 17 17 17 17 17 17 17 17 17 17 17 17 18 18 18 18 17 17 17 17 17 17 17 17 17 17 17 17 17 17 17 16 16 16 16 16 16 16 16 16 15 15
17 17 17 17 17 17 17 17 17 17 17 17 17 18 18 18 17 18 17 17 17 17 17 17 17 17 17 17 17 17 17 17 16 16 16 16 16 16 16 16 15 15 15
17 17 17 17 17 17 17 17 17 17 17 17 17 17 18 19 18 18 17 17 17 17 17 17 17 17 16 16 16 17 17 17 17 16 16 16 16 16 16 15 15 15 15
17 17 17 17 17 17 17 17 17 17 17 17 17 17 17 18 18 18 17 17 17 17 17 17 17 16 16 16 16 17 17 17 16 16 16 16 16 16 15 15 15 15 15
17 17 17 17 17 17 17 17 17 17 17 17 17 17 17 17 17 17 17 17 17 17 16 16 16 16 16 16 16 16 16 16 16 16 16 16 16 15 15 15 15 15 15
17 17 17 17 17 17 17 17 17 17 17 17 17 17 17 17 17 17 17 17 17 16 16 16 16 16 16 16 16 16 16 16 16 16 16 16 15 15 15 15 15 15 14
17 17 17 17 17 17 17 17 17 17 17 17 17 16 16 16 17 17 17 17 16 16 16 16 16 16 15 15 15 15 16 16 16 15 15 15 15 15 15 15 15 14 14
17 17 17 17 17 17 17 17 17 16 17 17 16 16 16 16 16 16 16 16 16 16 16 15 15 15 15 15 15 15 15 15 15 15 15 15 15 15 14 14 14 14 14
17 17 17 17 17 17 17 17 17 16 16 16 16 16 16 16 16 16 16 16 16 16 16 15 15 15 15 15 15 15 15 15 15 14 14 14 14 14 14 14 14 13 13
17 17 17 17 17 17 17 17 16 16 16 16 16 16 16 16 16 16 15 15 15 16 15 15 15 15 14 14 14 14 14 14 14 14 14 14 14 13 13 13 13 13 13
17 17 17 17 17 17 16 16 16 16 16 16 16 16 16 15 15 15 15 15 15 15 15 15 14 14 14 14 14 13 13 13 14 13 13 13 13 13 13 13 12 12 12
17 17 16 16 16 16 16 16 16 15 15 15 15 15 15 15 15 15 15 15 15 15 15 14 14 14 13 13 13 13 13 13 13 13 13 13 13 13 12 12 12 12 12
16 16 16 16 16 16 16 16 15 15 15 15 15 15 15 15 15 15 15 14 14 14 14 14 13 13 13 13 13 13 13 12 12 12 12 12 12 12 12 12 12 11 11
16 16 16 16 15 15 15 15 15 15 15 15 14 14 14 14 14 14 14 14 14 14 13 13 13 13 13 12 12 12 12 12 12 12 12 12 12 11 11 11 11 11 11
16 16 15 15 15 15 15 15 15 14 14 14 14 14 14 14 14 14 14 14 13 13 13 13 13 13 12 12 12 12 12 11 11 11 11 11 11 11 11 11 10 10 10
16 15 15 15 15 15 15 15 15 14 14 14 14 14 14 14 14 14 14 13 13 13 13 13 13 12 12 12 12 11 11 11 11 11 10 10 10 10 10 10 10 10 10
15 15 15 15 15 15 15 15 14 14 14 14 14 13 13 13 13 13 13 13 13 13 13 12 12 12 12 12 11 11 11 11 11 11 10 10 10 10 9 9 9 9 9
15 15 15 14 14 14 14 14 14 14 13 13 13 13 13 13 13 13 12 12 12 12 12 12 12 12 11 11 11 11 11 11 10 10 10 10 10 10 9 9 9 9 9
15 15 14 14 14 14 14 14 14 13 13 13 13 13 12 13 12 12 12 12 12 12 12 12 11 11 11 11 11 11 10 11 10 10 10 10 10 9 9 9 9 9 9
15 14 14 14 13 13 13 13 13 13 13 13 12 12 12 12 12 12 11 11 11 11 11 11 11 11 11 11 11 10 10 10 10 10 10 9 10 9 9 9 9 9 8
Wind_Speed
3 3 3 2 3 4 4 3 3 3 3 3 3 3 2 2 2 3 7 11 10 9 10 10 11 11 11 10 10 10 10 10 10 10 9 9 9 9 9 9 9 8 8
2 2 3 2 2 2 2 2 3 2 3 2 2 2 3 3 3 3 5 9 11 10 10 10 11 12 12 11 11 11 11 11 11 11 11 11 10 10 10 10 10 10 9
2 2 2 2 2 2 2 2 2 2 3 3 3 2 3 3 3 3 4 5 8 11 11 10 10 11 12 12 12 12 13 12 12 12 12 12 12 11 11 11 11 11 11
3 3 2 2 2 3 3 2 2 2 2 2 2 2 2 3 4 4 5 5 5 6 11 13 12 12 13 13 13 13 13 13 13 14 14 13 13 13 12 12 12 12 12
4 4 2 2 3 3 3 3 2 2 2 2 3 3 3 3 4 5 5 5 5 6 6 10 13 12 12 13 13 13 13 13 14 14 14 15 14 14 14 14 14 14 14
4 4 3 3 4 3 3 2 2 2 3 3 4 2 3 4 4 4 5 5 6 7 7 7 9 11 12 12 12 13 13 13 13 14 14 13 14 15 16 16 16 15 15
4 4 4 3 4 3 4 3 3 3 4 3 3 3 4 5 5 4 4 4 5 6 6 6 6 6 8 12 13 13 12 13 13 14 14 14 14 15 15 15 15 15 15
4 5 4 4 4 4 4 5 4 4 4 4 4 4 4 4 4 4 4 4 4 4 4 5 4 5 5 5 7 11 11 11 12 12 13 14 15 15 16 16 16 15 15
5 5 4 5 4 5 4 5 5 6 5 4 4 4 4 3 2 3 4 3 3 3 3 3 4 4 5 4 4 8 10 10 11 12 11 12 14 15 16 16 16 15 15
4 5 5 5 5 5 5 6 5 5 5 5 4 5 6 4 3 2 3 3 3 3 3 3 2 3 3 4 3 2 6 8 9 10 11 11 12 12 13 14 14 14 13
4 5 5 5 5 5 5 6 4 5 5 6 5 4 5 5 6 5 3 3 2 3 2 3 2 2 2 2 2 2 4 5 6 6 7 8 10 10 10 10 10 10 10
3 4 5 4 5 5 5 5 5 6 5 6 6 5 5 4 5 5 5 4 3 3 2 2 2 2 2 1 0 4 4 3 4 4 5 6 6 7 8 8 8 8 8
2 2 3 3 4 4 5 5 5 5 5 6 5 5 5 5 5 5 5 5 4 3 2 3 2 2 1 1 1 4 3 3 2 2 2 3 3 4 4 4 4 4 5
3 2 2 3 3 4 4 4 4 5 4 5 5 5 4 5 5 5 4 4 4 4 4 3 1 1 0 1 3 2 2 4 3 2 2 2 3 3 3 4 4 3 4
2 2 2 2 2 3 3 4 3 4 4 4 4 4 4 4 4 4 4 4 4 4 4 3 2 1 1 1 2 2 2 4 4 3 3 3 3 3 4 4 4 4 3
1 1 2 2 2 1 2 3 3 3 3 3 3 3 4 4 4 4 4 4 4 4 4 2 2 2 1 1 3 2 3 5 5 4 4 4 4 4 5 5 5 5 5
1 1 1 1 1 1 1 1 2 2 3 3 3 4 4 4 3 3 3 3 3 3 4 2 1 2 2 2 2 2 2 2 4 6 5 5 5 5 6 6 6 6 6
0 1 1 1 1 1 1 1 2 2 2 3 3 3 3 3 3 3 2 3 2 2 3 3 2 2 2 2 2 2 2 2 3 7 7 5 5 5 6 6 5 6 6
0 1 1 1 1 1 1 1 2 2 2 2 3 3 3 2 2 2 2 2 2 3 3 4 3 2 2 2 2 2 2 2 3 6 7 6 6 7 7 6 6 6 6
1 1 1 1 1 2 2 2 2 2 2 3 3 3 2 2 2 2 2 2 2 2 3 3 3 3 2 3 3 3 2 2 1 3 5 6 7 8 7 7 6 6 6
2 2 1 1 1 1 2 3 2 2 2 2 3 3 3 3 4 2 1 1 2 2 3 3 3 3 3 3 3 3 2 2 2 2 2 3 4 4 5 6 6 6 6
2 2 2 2 2 2 4 4 3 1 1 2 2 2 2 3 3 3 3 3 2 1 2 2 2 2 2 2 2 2 2 2 1 2 2 2 2 2 3 4 6 6 6
2 2 2 2 2 4 5 4 4 1 1 2 2 2 1 2 2 1 2 3 3 3 2 2 0 1 1 1 2 3 3 2 1 2 2 2 2 2 3 4 7 6 6
2 2 2 2 2 4 5 4 3 1 2 2 2 2 2 2 3 2 2 3 3 2 1 1 1 1 1 0 2 2 2 2 2 2 2 2 2 2 3 4 7 7 7
2 2 2 2 2 3 5 4 4 1 2 2 3 3 3 3 5 4 1 2 2 2 4 4 3 3 3 1 1 1 2 2 2 2 2 2 2 2 3 3 7 9 9
3 3 3 2 3 3 4 4 4 1 2 2 2 3 6 4 5 4 1 1 1 1 1 2 2 2 2 2 2 1 1 2 1 1 1 2 2 2 2 3 4 7 8
Wind_Direction
129 128 129 142 156 143 156 165 159 157 171 173 178 172 173 152 152 153 143 159 176 185 190 194 196 198 198 198 199 198 199 199 197 198 200 201 200 201 203 203 204 206 207
146 155 155 166 161 164 161 173 156 174 186 176 186 189 202 183 169 179 170 167 179 186 195 201 204 203 203 205 207 206 206 209 209 209 210 210 210 211 212 212 213 215 216
173 197 180 191 178 175 177 196 178 189 196 193 195 202 209 211 196 197 198 191 183 186 196 204 209 210 210 212 213 212 212 212 215 216 217 217 217 218 218 217 218 220 222
209 220 215 204 196 209 204 190 206 194 200 221 214 217 211 202 207 210 212 204 205 198 193 201 209 213 215 217 218 219 218 218 219 220 221 221 221 222 224 224 226 226 227
222 222 225 216 214 212 219 221 184 212 207 224 225 213 219 221 212 213 217 216 212 216 211 190 201 211 217 220 221 222 221 222 222 224 226 226 226 226 227 228 229 230 232
227 232 222 214 234 220 220 232 228 235 242 239 250 234 232 225 226 219 222 217 213 216 218 214 206 207 212 221 224 224 224 225 225 225 228 231 232 230 230 230 231 232 232
227 233 244 207 235 232 234 229 236 229 232 228 239 235 227 226 222 223 231 236 225 223 223 220 228 225 207 209 217 222 226 228 229 228 228 230 232 229 229 229 230 232 234
241 230 238 236 231 238 233 239 237 249 242 222 238 247 233 213 208 217 218 224 229 221 217 217 220 227 239 223 200 209 221 229 230 229 229 229 230 229 227 228 231 232 236
244 251 239 243 239 240 235 237 237 241 250 240 234 247 257 243 198 193 205 216 218 227 233 222 221 228 235 241 228 204 213 226 233 234 234 230 230 229 228 230 230 231 233
249 243 242 240 241 243 240 242 237 246 248 253 243 244 259 283 260 221 205 195 200 219 238 248 246 230 238 246 239 224 199 217 230 236 234 231 232 228 227 228 228 229 230
245 248 244 244 241 244 243 246 250 249 249 254 256 252 248 244 247 251 245 225 215 222 226 242 250 256 250 251 247 208 181 198 212 222 228 235 234 230 225 222 220 223 222
244 244 241 243 243 245 243 243 246 244 252 258 257 254 250 247 241 242 248 241 237 232 221 240 245 247 247 245 146 99 124 159 192 213 226 232 231 227 224 218 216 217 218
260 259 258 243 246 246 247 247 242 252 252 253 255 257 252 251 258 250 247 250 257 252 232 236 235 254 257 258 84 98 120 143 158 180 203 217 222 208 206 203 206 204 199
291 301 273 255 252 252 252 246 252 249 250 253 256 258 258 254 255 249 243 244 247 249 237 233 215 187 350 48 66 97 90 110 122 131 155 175 183 181 181 173 173 178 182
281 270 267 274 274 268 265 257 259 259 253 252 257 252 257 258 246 245 243 238 241 253 250 217 202 181 144 120 111 102 83 99 116 128 143 153 157 154 155 153 153 152 158
303 293 281 286 289 289 272 259 257 261 260 261 271 276 270 271 258 248 244 242 243 249 256 249 200 192 171 154 123 118 102 114 120 132 129 130 137 140 145 149 147 144 145
325 316 296 294 307 312 301 277 273 266 269 276 277 273 274 278 266 251 237 232 232 236 243 250 195 161 172 200 139 139 139 132 115 127 127 125 132 137 139 138 138 139 138
333 28 350 330 335 8 352 328 304 303 295 296 297 299 293 279 266 254 236 225 232 230 220 221 209 186 185 176 158 177 133 116 106 115 123 123 127 131 131 129 131 133 133
86 82 74 34 24 34 29 7 347 334 328 325 321 316 311 301 283 266 243 233 226 215 211 207 200 178 179 165 168 154 140 136 131 127 128 128 128 122 119 121 123 123 128
118 99 91 66 37 35 29 13 357 353 348 350 351 347 342 332 317 295 259 241 234 228 212 203 193 172 165 170 179 178 169 163 152 131 115 120 125 128 128 130 130 130 130
128 107 83 68 44 36 30 10 349 5 358 358 9 11 21 30 24 12 339 291 232 228 213 196 195 188 180 178 195 200 177 154 139 135 138 146 147 146 145 152 151 150 148
117 102 81 68 57 43 37 13 343 12 8 7 17 20 45 63 77 79 55 39 14 240 214 204 197 197 188 192 203 200 178 181 181 151 187 177 169 162 158 150 146 160 170
129 121 112 90 65 47 41 27 357 358 20 27 23 10 19 51 65 85 118 128 77 37 6 302 257 252 212 210 208 199 196 210 210 164 194 194 184 183 163 135 148 167 179
142 135 121 101 80 51 44 31 344 80 59 51 43 31 36 35 31 20 87 96 92 76 44 20 20 333 337 264 219 213 181 165 162 160 209 224 190 191 176 160 162 175 191
149 137 115 101 85 64 43 19 333 102 87 68 56 45 32 43 13 349 48 97 106 111 96 82 57 54 50 45 305 206 178 186 196 172 203 242 213 208 199 192 176 185 197
150 136 115 108 97 78 55 25 331 105 88 79 74 70 50 29 19 356 57 90 89 78 96 117 122 138 135 139 177 246 246 240 245 187 162 244 222 215 217 204 192 192 201
Height
1558 1559 1559 1559 1560 1561 1561 1561 1562 1562 1562 1563 1564 1564 1565 1565 1566 1567 1567 1566 1567 1568 1569 1569 1570 1571 1572 1573 1574 1575 1576 1577 1578 1579 1579 1580 1581 1582 1583 1583 1584 1584 1585
1559 1559 1559 1559 1560 1561 1562 1562 1562 1562 1563 1563 1564 1564 1565 1565 1565 1566 1567 1567 1567 1567 1568 1569 1570 1570 1571 1572 1573 1574 1575 1576 1576 1577 1578 1579 1580 1580 1581 1582 1582 1583 1583
1558 1559 1560 1560 1560 1561 1561 1561 1562 1562 1563 1563 1563 1564 1564 1564 1565 1565 1566 1566 1567 1567 1567 1568 1569 1569 1570 1571 1572 1572 1573 1574 1575 1575 1576 1577 1578 1578 1579 1580 1580 1581 1581
1558 1558 1559 1560 1560 1560 1561 1561 1562 1562 1562 1563 1563 1563 1563 1563 1563 1564 1565 1565 1566 1567 1566 1567 1567 1568 1569 1569 1570 1570 1571 1572 1573 1573 1574 1575 1575 1576 1576 1577 1578 1578 1579
1557 1558 1558 1559 1559 1560 1560 1561 1561 1561 1562 1562 1562 1562 1562 1562 1562 1563 1564 1564 1565 1565 1565 1565 1565 1566 1567 1567 1568 1568 1569 1569 1570 1571 1571 1572 1572 1573 1573 1574 1575 1575 1576
1556 1557 1557 1557 1558 1559 1559 1559 1559 1560 1560 1560 1561 1561 1561 1561 1561 1562 1562 1563 1563 1563 1563 1564 1564 1564 1564 1565 1565 1565 1566 1566 1567 1568 1568 1568 1569 1569 1570 1570 1571 1572 1572
1555 1555 1556 1556 1556 1557 1557 1558 1558 1559 1559 1559 1559 1559 1559 1559 1559 1559 1560 1561 1561 1561 1561 1561 1562 1562 1562 1562 1562 1563 1563 1563 1564 1564 1564 1565 1565 1565 1566 1566 1567 1568 1569
1553 1554 1554 1555 1555 1555 1556 1556 1556 1557 1557 1557 1558 1557 1557 1558 1556 1557 1557 1557 1558 1558 1559 1559 1559 1559 1560 1560 1560 1559 1560 1560 1560 1560 1561 1561 1561 1562 1562 1563 1563 1564 1564
1551 1552 1552 1553 1553 1554 1554 1554 1554 1554 1555 1555 1555 1556 1555 1554 1555 1555 1554 1555 1555 1556 1556 1557 1556 1556 1557 1557 1557 1556 1556 1557 1557 1557 1557 1557 1558 1558 1558 1559 1559 1559 1560
1550 1550 1550 1550 1550 1551 1551 1552 1552 1552 1553 1553 1553 1552 1553 1553 1553 1552 1553 1553 1553 1553 1553 1554 1554 1554 1554 1554 1553 1553 1553 1553 1553 1553 1554 1554 1554 1554 1555 1555 1555 1556 1556
1548 1548 1548 1548 1548 1549 1549 1549 1550 1550 1550 1550 1550 1550 1550 1550 1550 1551 1550 1551 1550 1550 1550 1550 1551 1551 1551 1550 1550 1549 1549 1550 1550 1550 1550 1550 1550 1551 1551 1551 1552 1552 1552
1546 1546 1546 1546 1546 1546 1546 1547 1547 1547 1547 1547 1547 1547 1547 1547 1547 1548 1548 1548 1548 1548 1548 1548 1548 1548 1548 1548 1547 1546 1546 1546 1546 1546 1547 1547 1547 1547 1547 1547 1548 1548 1548
1545 1544 1544 1544 1544 1544 1544 1544 1544 1544 1544 1544 1543 1544 1544 1544 1544 1545 1545 1545 1545 1545 1545 1545 1545 1545 1545 1545 1545 1544 1544 1544 1543 1543 1544 1544 1543 1543 1543 1543 1544 1544 1544
1543 1542 1542 1542 1542 1542 1542 1542 1542 1542 1541 1541 1541 1540 1540 1540 1541 1541 1541 1542 1542 1543 1543 1543 1543 1542 1543 1543 1542 1542 1541 1541 1541 1541 1540 1540 1540 1540 1540 1540 1540 1541 1541
1541 1540 1540 1540 1540 1539 1539 1539 1540 1539 1539 1538 1538 1538 1537 1537 1537 1538 1538 1539 1540 1539 1540 1540 1540 1540 1540 1540 1539 1539 1539 1538 1538 1538 1538 1538 1537 1537 1537 1537 1538 1538 1538
1539 1539 1539 1539 1538 1538 1538 1538 1538 1537 1537 1536 1536 1535 1534 1534 1534 1534 1535 1535 1535 1536 1536 1537 1537 1537 1537 1538 1537 1537 1537 1536 1536 1535 1535 1535 1534 1534 1535 1535 1535 1535 1535
1538 1537 1537 1537 1537 1537 1536 1536 1536 1536 1535 1535 1534 1533 1532 1531 1531 1531 1531 1532 1532 1533 1533 1534 1534 1534 1534 1535 1535 1535 1535 1534 1534 1533 1533 1532 1532 1532 1532 1532 1532 1532 1532
1537 1536 1536 1536 1536 1535 1535 1535 1534 1534 1533 1533 1532 1531 1530 1529 1528 1528 1529 1529 1529 1530 1530 1531 1531 1532 1532 1532 1532 1532 1533 1533 1532 1531 1531 1530 1530 1530 1530 1530 1530 1530 1530
1536 1535 1534 1534 1534 1534 1534 1534 1533 1533 1532 1531 1530 1528 1527 1527 1526 1526 1526 1526 1527 1527 1528 1528 1529 1529 1530 1530 1530 1530 1530 1530 1530 1530 1529 1529 1528 1528 1528 1528 1528 1528 1528
1535 1534 1534 1534 1534 1533 1533 1532 1532 1531 1530 1529 1528 1527 1526 1525 1524 1524 1524 1524 1524 1525 1525 1526 1526 1527 1527 1527 1528 1528 1528 1528 1529 1529 1528 1527 1527 1526 1526 1526 1526 1526 1526
1534 1534 1534 1534 1533 1533 1532 1531 1531 1530 1529 1528 1527 1526 1526 1524 1523 1523 1523 1522 1522 1522 1523 1523 1524 1524 1525 1525 1526 1526 1526 1527 1526 1526 1526 1526 1525 1525 1525 1525 1524 1524 1524
1533 1533 1533 1532 1532 1532 1531 1530 1530 1529 1528 1527 1526 1525 1525 1524 1523 1522 1521 1521 1521 1521 1522 1522 1522 1522 1522 1523 1523 1524 1524 1525 1525 1525 1525 1525 1525 1524 1524 1524 1523 1523 1523
1532 1532 1532 1531 1531 1530 1530 1529 1528 1528 1527 1526 1525 1524 1524 1523 1522 1521 1521 1520 1520 1520 1520 1521 1521 1521 1521 1521 1521 1522 1522 1522 1522 1522 1523 1523 1524 1523 1523 1522 1522 1521 1521
1531 1531 1531 1530 1529 1529 1528 1528 1527 1527 1526 1525 1524 1524 1523 1522 1522 1521 1521 1520 1519 1519 1520 1520 1520 1520 1520 1519 1520 1520 1520 1520 1520 1520 1521 1522 1522 1522 1522 1521 1520 1520 1519
1530 1530 1529 1529 1529 1528 1527 1526 1526 1526 1525 1524 1524 1523 1522 1522 1521 1521 1520 1519 1519 1519 1519 1519 1519 1518 1518 1518 1518 1519 1519 1519 1519 1519 1519 1520 1520 1520 1520 1519 1518 1518 1517
1528 1529 1528 1528 1528 1527 1526 1526 1525 1526 1525 1524 1523 1522 1521 1521 1520 1520 1520 1519 1519 1519 1519 1518 1518 1518 1518 1517 1517 1517 1518 1518 1518 1518 1518 1518 1518 1518 1518 1518 1517 1516 1515